Flag for India Weather past 2 weeks in Jaunpur, Uttar Pradesh, India

Now
54 °F

Fog.


Feels Like: 54 °F
Forecast: 47 / 71 °F
Wind: No wind

Location: Varanasi / Babatpur

Current Time: Dec 20, 2014 at 11:43:04 PM

Latest Report: Dec 20, 2014 at 11:00 PM


Visibility: 1 mi

Pressure: 30.04 "Hg

Humidity: 94%

Dew point: 52 °F

Location of JaunpurLocation

Historic Weather in Jaunpur — Graph

°F

Jaunpur temperature yesterday

Maximum temperature yesterday: 70 °F (at 2:00 PM)
Minimum temperature yesterday: 50 °F (at 6:00 AM)
Average temperature yesterday: 60 °F

Past Weeks' High & Low Weather Summary

 TemperatureHumidityPressure
High77 °F (Dec 7, 3:00 PM)100% (Dec 5, 10:00 PM)30.24 "Hg (Dec 5, 10:00 PM)
Low48 °F (Dec 8, 6:00 AM)34% (Dec 9, 3:00 PM)29.89 "Hg (Dec 7, 3:00 PM)
Average61 °F81%30.04 "Hg
* Reported Dec 5 10:00 PM — Dec 20 10:00 PM, Jaunpur, Weather by CustomWeather, © 2014

Note: Actual official high and low records may vary slightly from our data, if they occured in-between our weather recording intervals... More about our weather records

Advertising

Jaunpur weather history for previous 24 hours

 ConditionsComfort  
Time TempWeatherWind HumidityBarometerVisibility
10:00 PM
Dec 20
55 °FFog.3 mph88%30.07 "Hg1 mi
9:00 PM57 °FFog.5 mph88%30.04 "Hg1 mi
8:00 PM59 °FFog.5 mph88%30.04 "Hg1 mi
7:00 PM59 °FFog.5 mph88%30.01 "Hg1 mi
6:00 PM61 °FFog.3 mph83%30.01 "Hg1 mi
4:00 PM64 °FScattered clouds.3 mph68%30.01 "Hg1 mi
3:00 PM66 °FScattered clouds.6 mph60%30.01 "Hg1 mi
2:00 PM64 °FBroken clouds.5 mph68%30.01 "Hg1 mi
1:00 PM64 °FFog.5 mph73%30.04 "Hg1 mi
11:00 AM61 °FClear.No wind88%30.09 "Hg1 mi
10:00 AM55 °FFog.1 mph82%30.15 "Hg1 mi
7:00 AM50 °FFog.No wind94%30.09 "Hg0 mi
6:00 AM50 °FFog.No wind88%30.09 "Hg1 mi
5:00 AM50 °FFog.No wind94%30.07 "Hg1 mi
12:00 AM54 °FFog.No wind88%30.12 "Hg1 mi
11:00 PM
Dec 19
54 °FFog.No wind88%30.12 "Hg1 mi
Weather by CustomWeather, © 2014

See weather overviewHow to use our weather pages